When you browse on this site, cookies collect data to enhance your experience and personalize the content and advertising you see.
Visit our Privacy Policy to learn more. By continuing to use the site, you agree to this use of cookies and data.
  • In Hungary
  • List of Countries
  • For 7 days
  • Water Temperature
  • Weather Map
  • News
  • Weather Widgets
  • user-avatar
    Login

    Hourly Weather Malovydne

    Today, 13 November, Wednesday

    Time Temperature Precipitation Wind Pressure Humidity
    00:00 +5°C° 0 mm 3 mps 759 mmHg 82%
    01:00 +5°C° 0 mm 3 mps 759 mmHg 83%
    02:00 +5°C° 0 mm 3 mps 759 mmHg 84%
    03:00 +5°C° 0 mm 3 mps 759 mmHg 86%
    04:00 +5°C° 0 mm 3 mps 759 mmHg 88%
    05:00 +5°C° 0 mm 3 mps 759 mmHg 91%
    06:00 +5°C° 0 mm 4 mps 759 mmHg 91%
    07:00 +5°C° 0 mm 4 mps 759 mmHg 92%
    08:00 +6°C° 0 mm 5 mps 759 mmHg 92%
    09:00 +8°C° 0 mm 5 mps 759 mmHg 84%
    10:00 +9°C° 0 mm 5 mps 759 mmHg 76%
    11:00 +12°C° 0 mm 5 mps 759 mmHg 68%
    12:00 +13°C° 0 mm 5 mps 758 mmHg 65%
    13:00 +13°C° 0 mm 5 mps 758 mmHg 63%
    14:00 +14°C° 0 mm 5 mps 758 mmHg 60%
    15:00 +12°C° 0 mm 5 mps 758 mmHg 64%
    16:00 +10°C° 0 mm 5 mps 758 mmHg 69%
    17:00 +9°C° 0 mm 5 mps 758 mmHg 74%
    18:00 +9°C° 0 mm 5 mps 758 mmHg 76%
    19:00 +8°C° 0 mm 5 mps 758 mmHg 78%
    20:00 +8°C° 0 mm 5 mps 758 mmHg 80%
    21:00 +7°C° 0 mm 5 mps 758 mmHg 80%
    22:00 +7°C° 0 mm 5 mps 758 mmHg 80%
    23:00 +6°C° 0 mm 5 mps 758 mmHg 80%

    Tomorrow, 14 November, Thursday

    Time Temperature Precipitation Wind Pressure Humidity
    00:00 +6°C° 0 mm 5 mps 758 mmHg 80%
    01:00 +6°C° 0 mm 5 mps 758 mmHg 80%
    02:00 +5°C° 0 mm 5 mps 758 mmHg 80%
    03:00 +4°C° 0 mm 6 mps 758 mmHg 80%
    04:00 +4°C° 0 mm 6 mps 758 mmHg 79%
    05:00 +3°C° 0 mm 6 mps 757 mmHg 79%
    06:00 +3°C° 0 mm 6 mps 758 mmHg 76%
    07:00 +3°C° 0 mm 6 mps 758 mmHg 74%
    08:00 +3°C° 0 mm 6 mps 758 mmHg 71%
    09:00 +4°C° 0 mm 6 mps 758 mmHg 63%
    10:00 +6°C° 0 mm 7 mps 758 mmHg 56%
    11:00 +8°C° 0 mm 7 mps 758 mmHg 48%
    12:00 +8°C° 0 mm 7 mps 758 mmHg 46%
    13:00 +9°C° 0 mm 6 mps 758 mmHg 44%
    14:00 +9°C° 0 mm 6 mps 758 mmHg 42%
    15:00 +8°C° 0 mm 6 mps 757 mmHg 45%
    16:00 +7°C° 0 mm 6 mps 757 mmHg 48%
    17:00 +5°C° 0 mm 6 mps 757 mmHg 51%
    18:00 +5°C° 0 mm 6 mps 757 mmHg 53%
    19:00 +5°C° 0 mm 6 mps 758 mmHg 56%
    20:00 +4°C° 0 mm 6 mps 758 mmHg 58%
    21:00 +4°C° 0 mm 6 mps 758 mmHg 59%
    22:00 +4°C° 0 mm 6 mps 758 mmHg 60%
    23:00 +3°C° 0 mm 6 mps 758 mmHg 61%

    Day after tomorrow, 15 November, Friday

    Time Temperature Precipitation Wind Pressure Humidity
    00:00 +3°C° 0 mm 6 mps 758 mmHg 61%
    01:00 +3°C° 0 mm 6 mps 758 mmHg 62%
    02:00 +3°C° 0 mm 6 mps 758 mmHg 63%
    03:00 +2°C° 0 mm 5 mps 758 mmHg 64%
    04:00 +2°C° 0 mm 5 mps 758 mmHg 66%
    05:00 +2°C° 0 mm 5 mps 758 mmHg 67%
    06:00 +2°C° 0 mm 5 mps 758 mmHg 67%
    07:00 +2°C° 0 mm 5 mps 758 mmHg 67%
    08:00 +2°C° 0 mm 6 mps 759 mmHg 67%
    09:00 +3°C° 0 mm 6 mps 759 mmHg 65%
    10:00 +4°C° 0 mm 6 mps 759 mmHg 61%
    11:00 +6°C° 0 mm 7 mps 759 mmHg 56%
    12:00 +6°C° 0 mm 7 mps 759 mmHg 54%
    13:00 +8°C° 0 mm 6 mps 759 mmHg 52%
    14:00 +9°C° 0 mm 6 mps 759 mmHg 50%
    15:00 +8°C° 0 mm 6 mps 759 mmHg 53%
    16:00 +7°C° 0 mm 5 mps 759 mmHg 56%
    17:00 +6°C° 0 mm 5 mps 759 mmHg 59%
    18:00 +6°C° 0 mm 5 mps 759 mmHg 60%
    19:00 +5°C° 0 mm 5 mps 759 mmHg 61%
    20:00 +5°C° 0 mm 5 mps 759 mmHg 62%
    21:00 +5°C° 0 mm 5 mps 760 mmHg 63%
    22:00 +3°C° 0 mm 5 mps 760 mmHg 65%
    23:00 +3°C° 0 mm 5 mps 760 mmHg 66%

    16 November, Saturday

    Time Temperature Precipitation Wind Pressure Humidity
    00:00 +3°C° 0 mm 5 mps 760 mmHg 67%
    01:00 +3°C° 0 mm 4 mps 760 mmHg 69%
    02:00 +3°C° 0 mm 4 mps 761 mmHg 70%
    03:00 +1°C° 0 mm 4 mps 761 mmHg 72%
    04:00 +1°C° 0 mm 4 mps 761 mmHg 75%
    05:00 0°C° 0 mm 4 mps 761 mmHg 77%
    06:00 0°C° 0 mm 4 mps 761 mmHg 77%
    07:00 0°C° 0 mm 4 mps 761 mmHg 78%
    08:00 0°C° 0 mm 4 mps 761 mmHg 78%
    09:00 +1°C° 0 mm 5 mps 761 mmHg 73%
    10:00 +3°C° 0 mm 5 mps 762 mmHg 67%
    11:00 +5°C° 0 mm 5 mps 762 mmHg 61%
    12:00 +5°C° 0 mm 5 mps 761 mmHg 59%
    13:00 +6°C° 0 mm 5 mps 761 mmHg 58%
    14:00 +7°C° 0 mm 5 mps 761 mmHg 56%
    15:00 +6°C° 0 mm 4 mps 761 mmHg 60%
    16:00 +5°C° 0 mm 4 mps 761 mmHg 65%
    17:00 +4°C° 0 mm 4 mps 761 mmHg 69%
    18:00 +3°C° 0 mm 4 mps 761 mmHg 71%
    19:00 +3°C° 0 mm 4 mps 762 mmHg 73%
    20:00 +3°C° 0 mm 4 mps 762 mmHg 74%
    21:00 +1°C° 0 mm 4 mps 762 mmHg 76%
    22:00 +1°C° 0 mm 4 mps 762 mmHg 77%
    23:00 +2°C° 0 mm 3 mps 762 mmHg 78%

    17 November, Sunday

    Time Temperature Precipitation Wind Pressure Humidity
    00:00 +1°C° 0 mm 3 mps 762 mmHg 79%
    01:00 +1°C° 0 mm 3 mps 763 mmHg 80%
    02:00 +1°C° 0 mm 3 mps 763 mmHg 82%
    03:00 0°C° 0 mm 3 mps 763 mmHg 83%
    04:00 0°C° 0 mm 3 mps 763 mmHg 84%
    05:00 -1°C° 0 mm 4 mps 763 mmHg 86%
    06:00 -1°C° 0 mm 4 mps 763 mmHg 86%
    07:00 -1°C° 0 mm 4 mps 763 mmHg 86%
    08:00 -1°C° 0 mm 4 mps 763 mmHg 86%
    09:00 +1°C° 0 mm 4 mps 763 mmHg 80%
    10:00 +3°C° 0 mm 4 mps 763 mmHg 74%
    11:00 +4°C° 0 mm 4 mps 763 mmHg 68%
    12:00 +5°C° 0 mm 4 mps 763 mmHg 66%
    13:00 +6°C° 0 mm 4 mps 763 mmHg 63%
    14:00 +6°C° 0 mm 4 mps 763 mmHg 61%
    15:00 +5°C° 0 mm 4 mps 762 mmHg 66%
    16:00 +4°C° 0 mm 4 mps 762 mmHg 70%
    17:00 +3°C° 0 mm 4 mps 762 mmHg 75%
    18:00 +3°C° 0 mm 4 mps 762 mmHg 77%
    19:00 +3°C° 0 mm 4 mps 763 mmHg 79%
    20:00 +3°C° 0 mm 4 mps 763 mmHg 80%
    21:00 +1°C° 0 mm 4 mps 763 mmHg 82%
    22:00 +1°C° 0 mm 4 mps 763 mmHg 84%
    23:00 +2°C° 0 mm 3 mps 763 mmHg 86%

    18 November, Monday

    Time Temperature Precipitation Wind Pressure Humidity
    00:00 +2°C° 0 mm 3 mps 762 mmHg 87%
    01:00 +1°C° 0 mm 3 mps 762 mmHg 88%
    02:00 +1°C° 0 mm 3 mps 762 mmHg 90%
    03:00 +1°C° 0 mm 3 mps 762 mmHg 89%
    04:00 +1°C° 0 mm 3 mps 762 mmHg 89%
    05:00 +1°C° 0 mm 3 mps 762 mmHg 88%
    06:00 +1°C° 0 mm 3 mps 762 mmHg 86%
    07:00 +1°C° 0 mm 3 mps 762 mmHg 83%
    08:00 +1°C° 0 mm 4 mps 762 mmHg 80%
    09:00 +3°C° 0 mm 4 mps 762 mmHg 70%
    10:00 +5°C° 0 mm 4 mps 762 mmHg 60%
    11:00 +7°C° 0 mm 4 mps 762 mmHg 50%
    12:00 +7°C° 0 mm 4 mps 761 mmHg 47%
    13:00 +8°C° 0 mm 4 mps 761 mmHg 44%
    14:00 +8°C° 0 mm 4 mps 761 mmHg 41%
    15:00 +7°C° 0 mm 4 mps 760 mmHg 44%
    16:00 +5°C° 0 mm 3 mps 760 mmHg 48%
    17:00 +4°C° 0 mm 3 mps 760 mmHg 52%
    18:00 +4°C° 0 mm 3 mps 760 mmHg 53%
    19:00 +3°C° 0 mm 3 mps 760 mmHg 54%
    20:00 +3°C° 0 mm 3 mps 760 mmHg 54%
    21:00 +3°C° 0 mm 3 mps 760 mmHg 54%
    22:00 +2°C° 0 mm 3 mps 760 mmHg 54%
    23:00 +2°C° 0 mm 3 mps 760 mmHg 55%
    Show more